Location: Unspecified
(50.4500°N, 0.0000°E)
Time: 02:18:10
(UTC+00:00)

Cosmos 574 Rocket - Visible Passes

Search period start: 04 April 2026 00:00
Search period end: 14 April 2026 00:00
Orbit: 975 x 992 km, 82.9° (Epoch: 28 March)

Date Brightness Start Highest point End Pass type
(mag) Time Alt. Az. Time Alt. Az. Time Alt. Az.
4 Apr 5.3 00:57:09 64° ENE 00:57:09 64° ENE 01:02:47 10° NNE visible
4 Apr 6.2 02:41:58 25° WNW 02:42:38 26° WNW 02:47:50 10° N visible
4 Apr 6.6 23:39:48 23° ENE 23:39:48 23° ENE 23:44:02 10° NNE visible
5 Apr 5.1 01:24:38 69° NW 01:24:38 69° NW 01:30:33 10° N visible
5 Apr 6.8 03:09:27 15° WNW 03:10:59 16° NW 03:14:43 10° NNW visible
6 Apr 6.0 00:07:16 38° ENE 00:07:16 38° ENE 00:12:23 10° NNE visible
6 Apr 5.6 01:52:05 43° WNW 01:52:05 43° WNW 01:58:07 10° N visible
6 Apr 7.1 22:49:55 13° ENE 22:49:55 13° ENE 22:52:18 10° NE visible
7 Apr 5.3 00:34:44 63° ENE 00:34:44 63° ENE 00:40:23 10° NNE visible
7 Apr 6.2 02:19:33 26° WNW 02:20:13 26° WNW 02:25:27 10° N visible
7 Apr 6.6 23:17:21 22° ENE 23:17:21 22° ENE 23:21:36 10° NNE visible
8 Apr 5.1 01:02:10 72° NW 01:02:10 72° NW 01:08:09 10° N visible
8 Apr 6.8 02:46:59 15° WNW 02:48:33 16° WNW 02:52:23 10° NNW visible
8 Apr 5.9 23:44:47 37° ENE 23:44:47 37° ENE 23:49:58 10° NNE visible
9 Apr 5.6 01:29:36 44° WNW 01:29:41 44° WNW 01:35:44 10° N visible
9 Apr 7.1 22:27:24 12° ENE 22:27:26 12° ENE 22:29:45 10° NE visible
10 Apr 5.2 00:12:13 63° ENE 00:12:13 63° ENE 00:17:59 10° NNE visible
10 Apr 6.2 01:57:02 26° WNW 01:57:47 27° WNW 02:03:06 10° N visible
10 Apr 6.6 22:54:49 22° ENE 22:54:49 22° ENE 22:59:10 10° NNE visible
11 Apr 5.0 00:39:38 75° NW 00:39:38 75° NW 00:45:46 10° N visible
11 Apr 6.8 02:24:27 15° WNW 02:26:07 17° WNW 02:30:03 10° NNW visible
11 Apr 5.9 23:22:13 37° ENE 23:22:13 37° ENE 23:27:33 10° NNE visible
12 Apr 5.5 01:07:02 45° WNW 01:07:16 45° WNW 01:13:21 10° N visible
12 Apr 7.1 22:04:49 12° ENE 22:05:04 12° ENE 22:07:11 10° NE visible
12 Apr 5.2 23:49:37 63° ENE 23:49:37 63° ENE 23:55:34 10° NNE visible
13 Apr 6.2 01:34:26 27° W 01:35:21 28° WNW 01:40:43 10° N visible
13 Apr 6.5 22:32:12 21° E 22:32:12 21° E 22:36:43 10° NNE visible
